User: anonymous   Login
Location: Contre
(49.7477°N, 2.0963°E)
Time: 22:08:40
(UTC+00:00)
Language:

CUBEBUG 2 - Orbit

View from above orbital plane
View from above orbital plane
View from above satellite
View from above satellite

Ground track
Ground track

The orbit data is extracted from the following two-line orbital elements,

1 39440U 13066AA  24148.39983213  .00005388  00000-0  63886-3 0  9991
2 39440  97.8127  92.5216 0069547 343.7393  16.1589 14.83193398566459
Epoch (UTC): 27 May 2024 09:35:45
Eccentricity: 0.0069547
inclination: 97.8127°
perigee height: 570 km
apogee height: 668 km
right ascension of ascending node: 92.5216°
argument of perigee: 343.7393°
revolutions per day: 14.83193398
mean anomaly at epoch: 16.1589°
orbit number at epoch: 56645

The dashed part of the orbit path shows where the satellite is in the earth's shadow,  

DLR